TimeCDT,TemperatureF,Dew PointF,Humidity,Sea Level PressureIn,VisibilityMPH,Wind Direction,Wind SpeedMPH,Gust SpeedMPH,PrecipitationIn,Events,Conditions,WindDirDegrees,DateUTC
12:55 AM,59.2,59.2,100,30.06,10.0,Calm,Calm,-,N/A,,Clear,0,2012-10-22 05:55:00
1:15 AM,58.3,58.3,100,30.06,1.8,East,3.5,-,N/A,,Mist,80,2012-10-22 06:15:00
1:35 AM,57.6,57.6,100,30.06,5.0,East,3.5,-,N/A,,Clear,80,2012-10-22 06:35:00
1:55 AM,57.7,57.7,100,30.06,1.0,Calm,Calm,-,N/A,,Mist,0,2012-10-22 06:55:00
2:15 AM,57.6,57.6,100,30.05,1.0,Calm,Calm,-,N/A,,Mist,0,2012-10-22 07:15:00
2:35 AM,56.5,56.5,100,30.05,0.5,Calm,Calm,-,N/A,Fog,Fog,0,2012-10-22 07:35:00
2:55 AM,58.6,58.6,100,30.05,4.0,Calm,Calm,-,N/A,,Clear,0,2012-10-22 07:55:00
3:15 AM,58.5,58.5,100,30.05,0.5,Calm,Calm,-,N/A,Fog,Fog,0,2012-10-22 08:15:00
3:35 AM,58.6,58.6,100,30.05,1.2,Calm,Calm,-,N/A,,Mist,0,2012-10-22 08:35:00
3:55 AM,58.3,58.3,100,30.05,1.2,North,3.5,-,N/A,,Mist,10,2012-10-22 08:55:00
5:35 AM,56.5,56.5,100,30.06,0.8,Calm,Calm,-,N/A,,Mist,0,2012-10-22 10:35:00
5:50 AM,69.8,60.8,73,30.07,7.0,NE,3.5,-,N/A,,Clear,40,2012-10-22 10:50:00
5:55 AM,55.6,55.6,100,30.07,10.0,ENE,3.5,-,N/A,,Clear,70,2012-10-22 10:55:00
7:15 PM,68.7,63.5,83,30.05,10.0,Calm,Calm,-,N/A,,Clear,0,2012-10-23 00:15:00
7:55 PM,68.2,65.3,90,30.06,10.0,East,5.8,-,N/A,,Clear,90,2012-10-23 00:55:00
8:15 PM,68.7,65.8,90,30.06,10.0,East,5.8,-,N/A,,Clear,90,2012-10-23 01:15:00
8:35 PM,67.6,65.5,93,30.07,10.0,ENE,4.6,-,N/A,,Clear,70,2012-10-23 01:35:00
8:55 PM,66.9,65.7,96,30.07,10.0,ENE,4.6,-,N/A,,Clear,70,2012-10-23 01:55:00
9:15 PM,66.2,65.7,98,30.07,10.0,ENE,4.6,-,N/A,,Clear,60,2012-10-23 02:15:00
9:35 PM,66.7,66.0,98,30.07,10.0,ENE,5.8,-,N/A,,Clear,60,2012-10-23 02:35:00
10:15 PM,65.5,65.5,100,30.07,10.0,ENE,4.6,-,N/A,,Clear,70,2012-10-23 03:15:00
10:35 PM,64.9,64.9,100,30.07,10.0,ENE,4.6,-,N/A,,Clear,70,2012-10-23 03:35:00
10:55 PM,65.7,65.7,100,30.07,10.0,NE,4.6,-,N/A,,Clear,50,2012-10-23 03:55:00
11:15 PM,65.5,65.5,100,30.07,10.0,ENE,4.6,-,N/A,,Clear,60,2012-10-23 04:15:00
11:55 PM,64.9,64.9,100,30.06,10.0,ENE,4.6,-,N/A,,Clear,70,2012-10-23 04:55:00